• In Uzbekistan
  • List of Countries
  • For 7 days
  • Water Temperature
  • Satellite Maps
  • Weather Map
  • Weather Widgets
  • user-avatar
    Login

    Hourly Weather Shtul

    Today, 18 October, Thursday

    Time Temperature Precipitation Wind Pressure Humidity
    00:00 +9°C° 0 mm 1 mps 650 mmHg 58%
    01:00 +9°C° 0 mm 1 mps 649 mmHg 53%
    02:00 +9°C° 0 mm 1 mps 649 mmHg 48%
    03:00 +7°C° 0 mm 2 mps 649 mmHg 43%
    04:00 +8°C° 0 mm 1 mps 649 mmHg 39%
    05:00 +8°C° 0 mm 1 mps 649 mmHg 35%
    06:00 +8°C° 0 mm 1 mps 649 mmHg 30%
    07:00 +10°C° 0 mm 1 mps 649 mmHg 31%
    08:00 +13°C° 0 mm 1 mps 650 mmHg 32%
    09:00 +15°C° 0 mm 2 mps 651 mmHg 32%
    10:00 +16°C° 0 mm 2 mps 651 mmHg 34%
    11:00 +16°C° 0 mm 2 mps 651 mmHg 37%
    12:00 +17°C° 0 mm 2 mps 651 mmHg 39%
    13:00 +16°C° 0 mm 2 mps 651 mmHg 43%
    14:00 +16°C° 0 mm 2 mps 651 mmHg 48%
    15:00 +16°C° 0 mm 2 mps 650 mmHg 53%
    16:00 +14°C° 0 mm 2 mps 650 mmHg 63%
    17:00 +12°C° 0 mm 1 mps 650 mmHg 73%
    18:00 +10°C° 0 mm 1 mps 649 mmHg 83%
    19:00 +10°C° 0 mm 1 mps 649 mmHg 80%
    20:00 +10°C° 0 mm 1 mps 649 mmHg 77%
    21:00 +10°C° 0 mm 1 mps 649 mmHg 74%
    22:00 +9°C° 0 mm 1 mps 649 mmHg 71%
    23:00 +9°C° 0 mm 1 mps 649 mmHg 68%

    Tomorrow, 19 October, Friday

    Time Temperature Precipitation Wind Pressure Humidity
    00:00 +9°C° 0 mm 1 mps 649 mmHg 65%
    01:00 +8°C° 0 mm 2 mps 649 mmHg 63%
    02:00 +8°C° 0 mm 2 mps 649 mmHg 60%
    03:00 +7°C° 0 mm 2 mps 649 mmHg 57%
    04:00 +7°C° 0 mm 2 mps 649 mmHg 55%
    05:00 +7°C° 0 mm 2 mps 649 mmHg 53%
    06:00 +7°C° 0 mm 2 mps 648 mmHg 52%
    07:00 +9°C° 0 mm 2 mps 649 mmHg 47%
    08:00 +13°C° 0 mm 2 mps 650 mmHg 43%
    09:00 +15°C° 0 mm 2 mps 651 mmHg 38%
    10:00 +16°C° 0 mm 2 mps 651 mmHg 39%
    11:00 +16°C° 0 mm 2 mps 651 mmHg 39%
    12:00 +17°C° 0 mm 3 mps 651 mmHg 39%
    13:00 +17°C° 0 mm 3 mps 651 mmHg 44%
    14:00 +17°C° 0 mm 3 mps 650 mmHg 48%
    15:00 +16°C° 0 mm 3 mps 650 mmHg 52%
    16:00 +14°C° 0 mm 2 mps 649 mmHg 62%
    17:00 +13°C° 0 mm 2 mps 649 mmHg 72%
    18:00 +11°C° 0 mm 1 mps 648 mmHg 81%
    19:00 +11°C° 0 mm 1 mps 648 mmHg 80%
    20:00 +11°C° 0 mm 1 mps 648 mmHg 79%
    21:00 +10°C° 0 mm 1 mps 648 mmHg 77%
    22:00 +9°C° 0 mm 2 mps 648 mmHg 76%
    23:00 +9°C° 0 mm 2 mps 648 mmHg 75%

    Day after tomorrow, 20 October, Saturday

    Time Temperature Precipitation Wind Pressure Humidity
    00:00 +9°C° 0 mm 2 mps 648 mmHg 73%
    01:00 +9°C° 0 mm 2 mps 647 mmHg 72%
    02:00 +8°C° 0 mm 2 mps 647 mmHg 70%
    03:00 +8°C° 0 mm 2 mps 647 mmHg 69%
    04:00 +8°C° 0 mm 2 mps 647 mmHg 67%
    05:00 +8°C° 0 mm 2 mps 646 mmHg 65%
    06:00 +8°C° 0 mm 2 mps 646 mmHg 63%
    07:00 +10°C° 0 mm 2 mps 647 mmHg 55%
    08:00 +14°C° 0 mm 2 mps 648 mmHg 47%
    09:00 +16°C° 0 mm 1 mps 649 mmHg 38%
    10:00 +17°C° 0 mm 2 mps 649 mmHg 37%
    11:00 +18°C° 0 mm 2 mps 648 mmHg 36%
    12:00 +18°C° 0 mm 2 mps 648 mmHg 35%
    13:00 +18°C° 0 mm 2 mps 648 mmHg 38%
    14:00 +18°C° 0 mm 2 mps 648 mmHg 41%
    15:00 +18°C° 0 mm 2 mps 647 mmHg 44%
    16:00 +16°C° 0 mm 2 mps 647 mmHg 52%
    17:00 +14°C° 0 mm 1 mps 646 mmHg 59%
    18:00 +12°C° 0 mm 1 mps 646 mmHg 67%
    19:00 +12°C° 0 mm 1 mps 646 mmHg 65%
    20:00 +12°C° 0 mm 1 mps 646 mmHg 62%
    21:00 +12°C° 0 mm 1 mps 646 mmHg 60%
    22:00 +12°C° 0 mm 1 mps 646 mmHg 58%
    23:00 +11°C° 0 mm 1 mps 646 mmHg 56%

    21 October, Sunday

    Time Temperature Precipitation Wind Pressure Humidity
    00:00 +10°C° 0 mm 2 mps 646 mmHg 54%
    01:00 +10°C° 0 mm 2 mps 645 mmHg 52%
    02:00 +10°C° 0 mm 2 mps 645 mmHg 50%
    03:00 +10°C° 0 mm 2 mps 645 mmHg 49%
    04:00 +10°C° 0 mm 2 mps 645 mmHg 46%
    05:00 +10°C° 0 mm 2 mps 645 mmHg 43%
    06:00 +10°C° 0 mm 2 mps 645 mmHg 41%
    07:00 +13°C° 0 mm 1 mps 646 mmHg 37%
    08:00 +15°C° 0 mm 1 mps 646 mmHg 33%
    09:00 +18°C° 0 mm 1 mps 647 mmHg 30%
    10:00 +18°C° 0 mm 2 mps 647 mmHg 30%
    11:00 +18°C° 0 mm 2 mps 647 mmHg 31%
    12:00 +19°C° 0 mm 3 mps 647 mmHg 32%
    13:00 +18°C° 0 mm 3 mps 646 mmHg 35%
    14:00 +18°C° 0 mm 2 mps 646 mmHg 38%
    15:00 +18°C° 0 mm 2 mps 645 mmHg 40%
    16:00 +16°C° 0 mm 2 mps 645 mmHg 46%
    17:00 +14°C° 0 mm 1 mps 645 mmHg 52%
    18:00 +11°C° 0 mm 0 mps 644 mmHg 59%
    19:00 +11°C° 0 mm 0 mps 644 mmHg 57%
    20:00 +12°C° 0 mm 1 mps 644 mmHg 55%
    21:00 +12°C° 0 mm 1 mps 644 mmHg 54%
    22:00 +12°C° 0 mm 1 mps 644 mmHg 53%
    23:00 +12°C° 0 mm 1 mps 644 mmHg 53%

    22 October, Monday

    Time Temperature Precipitation Wind Pressure Humidity
    00:00 +12°C° 0 mm 1 mps 644 mmHg 53%
    01:00 +11°C° 0 mm 1 mps 643 mmHg 52%
    02:00 +11°C° 0 mm 1 mps 643 mmHg 52%
    03:00 +11°C° 0 mm 1 mps 643 mmHg 52%
    04:00 +11°C° 0 mm 1 mps 643 mmHg 52%
    05:00 +11°C° 0 mm 1 mps 643 mmHg 52%
    06:00 +11°C° 0 mm 1 mps 643 mmHg 52%
    07:00 +13°C° 0 mm 1 mps 644 mmHg 49%
    08:00 +14°C° 0 mm 1 mps 645 mmHg 46%
    09:00 +16°C° 0 mm 1 mps 645 mmHg 44%
    10:00 +17°C° 0 mm 2 mps 645 mmHg 43%
    11:00 +17°C° 0 mm 2 mps 645 mmHg 41%
    12:00 +18°C° 0 mm 3 mps 645 mmHg 40%
    13:00 +18°C° 0 mm 3 mps 645 mmHg 43%
    14:00 +18°C° 0 mm 3 mps 645 mmHg 46%
    15:00 +17°C° 0 mm 2 mps 645 mmHg 48%
    16:00 +16°C° 0 mm 2 mps 645 mmHg 55%
    17:00 +14°C° 0 mm 2 mps 644 mmHg 61%
    18:00 +12°C° 0 mm 1 mps 644 mmHg 68%
    19:00 +12°C° 0 mm 1 mps 644 mmHg 66%
    20:00 +12°C° 0 mm 1 mps 645 mmHg 64%
    21:00 +12°C° 0 mm 1 mps 645 mmHg 62%
    22:00 +12°C° 0 mm 1 mps 645 mmHg 60%
    23:00 +10°C° 0 mm 2 mps 644 mmHg 59%

    23 October, Tuesday

    Time Temperature Precipitation Wind Pressure Humidity
    00:00 +10°C° 0 mm 2 mps 644 mmHg 57%
    01:00 +10°C° 0 mm 2 mps 644 mmHg 57%
    02:00 +10°C° 0 mm 2 mps 644 mmHg 56%
    03:00 +10°C° 0 mm 2 mps 644 mmHg 56%
    04:00 +10°C° 0 mm 2 mps 645 mmHg 55%
    05:00 +10°C° 0 mm 2 mps 645 mmHg 55%
    06:00 +10°C° 0 mm 2 mps 645 mmHg 54%
    07:00 +13°C° 0 mm 2 mps 645 mmHg 49%
    08:00 +15°C° 0 mm 2 mps 646 mmHg 43%
    09:00 +18°C° 0 mm 1 mps 647 mmHg 38%
    10:00 +18°C° 0 mm 2 mps 647 mmHg 36%
    11:00 +18°C° 0 mm 2 mps 647 mmHg 34%
    12:00 +19°C° 0 mm 3 mps 647 mmHg 32%
    13:00 +19°C° 0 mm 3 mps 647 mmHg 33%
    14:00 +19°C° 0 mm 2 mps 646 mmHg 34%
    15:00 +18°C° 0 mm 2 mps 646 mmHg 35%
    16:00 +17°C° 0 mm 2 mps 645 mmHg 40%
    17:00 +15°C° 0 mm 2 mps 645 mmHg 44%
    18:00 +13°C° 0 mm 2 mps 645 mmHg 49%
    19:00 +13°C° 0 mm 2 mps 644 mmHg 49%
    20:00 +13°C° 0 mm 2 mps 644 mmHg 49%
    21:00 +13°C° 0 mm 2 mps 644 mmHg 48%
    22:00 +13°C° 0 mm 2 mps 644 mmHg 49%
    23:00 +13°C° 0 mm 2 mps 644 mmHg 50%
    Show more